Regional Weather Roundup
Issued by NWS Albany, NY

Home | Current Version | Previous Version | Text Only | Print | Product List | Glossary On
Versions: 1 2 3 4 5 6 7 8 9 10 11 12 13 14 15 16 17 18 19 20 21 22 23 24 25 26 27
000
ASUS41 KALY 240910
RWRALY

NEW YORK STATE HOURLY WEATHER ROUNDUP
NATIONAL WEATHER SERVICE ALBANY NY
500 AM EDT FRI OCT 24 2014

NOTE: "FAIR" INDICATES FEW OR NO CLOUDS BELOW 12,000 FEET WITH NO
SIGNIFICANT WEATHER AND/OR NO OBSTRUCTIONS TO VISIBILITY.

NYZ032-033-038>043-046>054-057>066-NYZ062>081-241000-
EAST


CITY           SKY/WX    TMP DP  RH WIND       PRES   REMARKS
ALBANY         LGT RAIN  46  44  93 NE5       29.82R
GLENS FALLS    LGT RAIN  45  42  89 E5        29.82R
POUGHKEEPSIE   CLOUDY    49  44  83 N3        29.79R
MONTGOMERY     LGT RAIN  49  42  77 VRB5      29.78S
WHITE PLAINS   MOCLDY    49  44  83 NW9       29.76S
ISLIP          CLOUDY    51  46  83 NW20G28   29.72R
NEW YORK CITY  CLOUDY    51  43  74 NW14      29.78R
CENTRAL PARK   PTCLDY    51  42  71 W3        29.81S
$$

NYZ005>009-017-018-044>046-055-056-241000-
CENTRAL


CITY           SKY/WX    TMP DP  RH WIND       PRES   REMARKS
FULTON         LGT RAIN  48  45  89 CALM      29.96R
SYRACUSE       LGT RAIN  49  44  83 W6        29.95R
ROME           CLOUDY    47  41  80 NW10      29.92R
ELMIRA         MOCLDY    49  47  93 CALM      29.95S
BINGHAMTON     CLOUDY    45  41  86 N15       29.89R
MONTICELLO     CLOUDY    43  41  93 NW10      29.82R
$$

NYZ026>034-041>043-241000-
NORTH


CITY           SKY/WX    TMP DP  RH WIND       PRES   REMARKS
WATERTOWN      CLOUDY    46  39  76 CALM      29.95S
FORT DRUM      NOT AVBL
MASSENA        CLOUDY    46  41  82 W3        29.94R
SARANAC LAKE   CLOUDY    39  37  92 N7        29.85R WCI  34
PLATTSBURGH    LGT RAIN  42  40  92 N13       29.86F
$$

NYZ001>004-010>016-019>021-241000-
WEST


CITY           SKY/WX    TMP DP  RH WIND       PRES   REMARKS
NIAGARA FALLS  CLEAR     43  40  89 NW5       30.02S
BUFFALO        CLEAR     40  38  93 SW6       30.02S
DUNKIRK        CLEAR     35  34  96 SW5       30.05R WCI  31
JAMESTOWN      MOCLDY    45  41  87 NW8       30.04R
WELLSVILLE     PTCLDY    43  37  79 NW9       30.00R
ROCHESTER      CLOUDY    51  43  74 NW12      29.99R
PENN YAN       PTCLDY    48  45  89 CALM      29.97R
$$

             KEY
       WCI = WIND CHILL INDEX
       VSB = VISIBILITY
       HX  = HEAT INDEX
$$



USA.gov is the U.S. government's official web portal to all federal, state and local government web resources and services.